Location: Mainz-Finthen
(49.9906°N, 8.1713°E)
Time: 07:59:54
(UTC+00:00)

BlueWalker 3 - Visible Passes

Search period start: 28 November 2022 00:00
Search period end: 08 December 2022 00:00
Orbit: 500 x 519 km, 53.2° (Epoch: 27 November)

Date Brightness Start Highest point End Pass type
(mag) Time Alt. Az. Time Alt. Az. Time Alt. Az.
28 Nov 1.9 17:12:21 10° WSW 17:16:16 79° NNW 17:17:47 36° ENE visible
28 Nov 4.6 18:51:24 10° WNW 18:52:36 19° WNW 18:52:36 19° WNW visible
29 Nov 2.0 16:54:00 10° WSW 16:57:55 77° NNW 17:00:09 24° ENE visible
29 Nov 4.0 18:33:03 10° WNW 18:34:58 26° WNW 18:34:58 26° WNW visible
30 Nov 2.0 16:35:39 10° WSW 16:39:34 75° NNW 16:42:29 17° ENE visible
30 Nov 3.3 18:14:42 10° WNW 18:17:19 36° NW 18:17:19 36° NW visible
01 Dec 2.0 16:17:18 10° WSW 16:21:12 73° NNW 16:24:50 12° ENE visible
01 Dec 2.6 17:56:21 10° WNW 17:59:39 47° NNW 17:59:39 47° NNW visible
02 Dec 2.2 17:37:59 10° WNW 17:41:50 52° N 17:42:00 52° NNE visible
02 Dec 5.4 19:16:48 10° WNW 19:16:50 10° WNW 19:16:50 10° WNW visible
03 Dec 2.2 17:19:37 10° WNW 17:23:29 52° N 17:24:22 42° NE visible
03 Dec 4.9 18:58:25 10° WNW 18:59:12 15° WNW 18:59:12 15° WNW visible
04 Dec 2.2 17:01:14 10° WNW 17:05:06 53° N 17:06:46 30° ENE visible
04 Dec 4.3 18:40:02 10° WNW 18:41:36 23° WNW 18:41:36 23° WNW visible
05 Dec 2.2 16:42:52 10° WNW 16:46:44 53° N 16:49:12 20° ENE visible
05 Dec 3.5 18:21:39 10° WNW 18:24:02 35° WNW 18:24:02 35° WNW visible
06 Dec 2.2 16:24:29 10° WNW 16:28:20 54° N 16:31:43 13° E visible
06 Dec 2.5 18:03:15 10° WNW 18:06:33 58° W 18:06:33 58° W visible
07 Dec 2.2 16:06:05 10° WNW 16:09:56 55° N 16:13:47 10° E visible
07 Dec 2.1 17:44:51 10° WNW 17:48:44 68° SSW 17:49:08 62° SSE visible
